LZ3VG-1 Weather Reports


Display with metric or nautical units.
time (UTC)temp
F
wind
direction
speed
MPH
gust
MPH
rain 1hr
in
rain 24hr
in
rain mn
in
humidity
%
barometer
mb
20260503021256 41 141 2.0 3.0 0.00 0.00 0.00 91 1019.4
20260503020823 42 122 0.0 3.0 0.00 0.00 0.00 90 1019.5
20260503020814 42 144 2.0 3.0 0.00 0.00 0.00 91 1019.6
20260503015757 42 136 1.0 3.0 0.00 0.00 0.00 90 1019.7
20260503015256 42 151 1.0 3.0 0.00 0.00 0.00 89 1019.6
20260503014757 43 139 2.0 3.0 0.00 0.00 0.00 89 1019.5
20260503014539 43 165 0.0 3.0 0.00 0.00 0.00 89 1019.7
20260503013757 43 190 1.0 2.0 0.00 0.00 0.00 88 1019.6
20260503013256 43 73 0.0 2.0 0.00 0.00 0.00 88 1019.3
20260503013036 43 127 2.0 3.0 0.00 0.00 0.00 87 1019.3
20260503012256 44 117 1.0 3.0 0.00 0.00 0.00 87 1019.1
20260503011757 44 143 0.0 3.0 0.00 0.00 0.00 87 1019.1
20260503011256 44 164 1.0 3.0 0.00 0.00 0.00 87 1019.4
20260503010756 44 160 0.0 3.0 0.00 0.00 0.00 87 1019.3
20260503010255 44 275 2.0 2.0 0.00 0.00 0.00 87 1019.3
20260503010037 44 238 0.0 3.0 0.00 0.00 0.00 87 1019.5
20260503005255 45 212 0.0 3.0 0.00 0.00 0.00 86 1019.3
20260503004757 45 72 0.0 2.0 0.00 0.00 0.00 87 1019.5
20260503004255 45 131 1.0 3.0 0.00 0.00 0.00 86 1019.3
20260503004036 45 84 0.0 3.0 0.00 0.00 0.00 86 1019.1
20260503003536 45 119 0.0 3.0 0.00 0.00 0.00 85 1019.1
20260503002757 46 98 1.0 3.0 0.00 0.00 0.00 84 1019.4
20260503002256 46 150 0.0 3.0 0.00 0.00 0.00 84 1019.4
20260503002037 45 168 1.0 4.0 0.00 0.00 0.00 85 1019.5
20260503001256 45 144 2.0 4.0 0.00 0.00 0.00 85 1019.5
20260503001147 46 139 3.0 3.0 0.00 0.00 0.00 84 1019.4
20260503001141 46 139 1.0 3.0 0.00 0.00 0.00 83 1019.8
20260503001137 46 214 0.0 3.0 0.00 0.00 0.00 85 1019.4
20260502235257 46 131 2.0 3.0 0.00 0.00 0.00 82 1019.5
20260502234757 46 298 0.0 2.0 0.00 0.00 0.00 82 1019.6
20260502234256 47 166 2.0 2.0 0.00 0.00 0.00 82 1019.7
20260502233757 47 221 0.0 3.0 0.00 0.00 0.00 81 1019.7
20260502233256 47 0 0.0 3.0 0.00 0.00 0.00 82 1019.6
20260502232756 47 57 1.0 3.0 0.00 0.00 0.00 82 1019.6
20260502232256 47 148 0.0 4.0 0.00 0.00 0.00 81 1019.6
20260502231757 47 333 0.0 4.0 0.00 0.00 0.00 81 1019.5
20260502231541 47 144 2.0 4.0 0.00 0.00 0.00 82 1019.7
20260502230757 47 227 2.0 4.0 0.00 0.00 0.00 82 1019.8
20260502230256 46 171 1.0 3.0 0.00 0.00 0.00 84 1019.7
20260502225757 46 144 1.0 3.0 0.00 0.00 0.00 83 1019.7
20260502225256 47 117 1.0 2.0 0.00 0.00 0.00 82 1019.7
20260502224756 46 37 0.0 3.0 0.00 0.00 0.00 84 1019.7
20260502224259 46 130 0.0 3.0 0.00 0.00 0.00 84 1019.8
20260502224037 46 128 2.0 2.0 0.00 0.00 0.00 83 1019.8
20260502223255 46 142 1.0 3.0 0.00 0.00 0.00 82 1019.9
20260502222758 47 132 1.0 3.0 0.00 0.00 0.00 82 1019.7
20260502222257 47 118 1.0 2.0 0.00 0.00 0.00 81 1020.0
20260502221757 47 222 1.0 2.0 0.00 0.00 0.00 81 1020.1
20260502221256 47 212 0.0 2.0 0.00 0.00 0.00 81 1020.1
20260502220756 47 114 0.0 2.0 0.00 0.00 0.00 82 1020.0
20260502220536 47 135 1.0 2.0 0.00 0.00 0.00 81 1020.0
20260502215757 48 152 1.0 2.0 0.00 0.00 0.00 80 1020.0
20260502215256 48 136 0.0 2.0 0.00 0.00 0.00 80 1019.9
20260502214757 48 324 0.0 2.0 0.00 0.00 0.00 79 1019.9
20260502214535 49 217 0.0 1.0 0.00 0.00 0.00 79 1019.8
20260502214035 48 103 0.0 2.0 0.00 0.00 0.00 80 1019.9
20260502213325 49 110 2.0 2.0 0.00 0.00 0.00 78 1019.9
20260502213314 48 122 0.0 2.0 0.00 0.00 0.00 79 1020.0
20260502212256 49 135 1.0 2.0 0.00 0.00 0.00 76 1019.9
20260502212038 50 154 0.0 1.0 0.00 0.00 0.00 75 1020.0
20260502211256 50 142 0.0 2.0 0.00 0.00 0.00 77 1020.0
20260502210757 50 95 0.0 2.0 0.00 0.00 0.00 76 1020.1
20260502210536 50 119 0.0 2.0 0.00 0.00 0.00 76 1020.2
20260502205757 51 333 0.0 1.0 0.00 0.00 0.00 74 1020.2
20260502205257 51 212 0.0 1.0 0.00 0.00 0.00 72 1020.2
20260502204757 51 130 0.0 1.0 0.00 0.00 0.00 71 1020.0
20260502204256 52 162 1.0 1.0 0.00 0.00 0.00 70 1020.2
20260502203758 52 154 0.0 2.0 0.00 0.00 0.00 71 1020.2
20260502203535 52 149 0.0 2.0 0.00 0.00 0.00 70 1020.4
20260502202759 52 135 0.0 1.0 0.00 0.00 0.00 69 1020.3
20260502202256 53 145 0.0 1.0 0.00 0.00 0.00 70 1020.3
20260502201757 53 217 0.0 1.0 0.00 0.00 0.00 68 1020.3
20260502201255 53 184 0.0 1.0 0.00 0.00 0.00 67 1020.3
20260502200757 53 212 0.0 1.0 0.00 0.00 0.00 67 1020.3
20260502200536 53 142 0.0 2.0 0.00 0.00 0.00 67 1020.3
20260502200036 54 130 0.0 2.0 0.00 0.00 0.00 66 1020.1
20260502195256 55 121 0.0 1.0 0.00 0.00 0.00 67 1020.3
20260502194756 55 147 0.0 2.0 0.00 0.00 0.00 68 1020.3
20260502194256 55 142 0.0 2.0 0.00 0.00 0.00 65 1020.2
20260502193757 55 135 0.0 2.0 0.00 0.00 0.00 63 1020.4
20260502193255 56 144 0.0 2.0 0.00 0.00 0.00 61 1020.2
20260502192823 56 135 0.0 2.0 0.00 0.00 0.00 60 1020.0
20260502192813 56 166 0.0 2.0 0.00 0.00 0.00 60 1020.0
20260502191825 58 136 1.0 2.0 0.00 0.00 0.00 57 1020.0
20260502191814 57 136 0.0 2.0 0.00 0.00 0.00 58 1020.1
20260502190756 58 124 0.0 2.0 0.00 0.00 0.00 56 1020.0
20260502190255 59 246 0.0 1.0 0.00 0.00 0.00 55 1020.0
20260502190038 59 164 0.0 2.0 0.00 0.00 0.00 54 1019.9
20260502185257 60 162 1.0 2.0 0.00 0.00 0.00 52 1019.9
20260502184757 60 241 0.0 2.0 0.00 0.00 0.00 51 1019.9
20260502184353 62 156 0.0 1.0 0.00 0.00 0.00 51 1019.9
20260502184348 63 195 0.0 1.0 0.00 0.00 0.00 50 1019.8
20260502184333 61 218 0.0 2.0 0.00 0.00 0.00 53 1019.8
20260502182758 63 224 0.0 2.0 0.00 0.00 0.00 49 1019.7
20260502182537 64 197 0.0 2.0 0.00 0.00 0.00 48 1019.6
20260502181757 65 166 0.0 0.0 0.00 0.00 0.00 45 1019.7
20260502181256 66 176 0.0 0.0 0.00 0.00 0.00 41 1019.6
20260502180759 67 173 0.0 3.0 0.00 0.00 0.00 38 1019.7
20260502180258 68 173 0.0 3.0 0.00 0.00 0.00 36 1019.6
20260502170258 73 139 5.0 6.0 0.00 0.00 0.00 29 1019.5
20260502163757 74 110 6.0 8.0 0.00 0.00 0.00 29 1019.8
20260502163301 74 154 5.0 8.0 0.00 0.00 0.00 28 1019.9
20260502162758 74 121 2.0 6.0 0.00 0.00 0.00 29 1019.8
20260502162259 74 143 1.0 6.0 0.00 0.00 0.00 28 1019.8
20260502161757 74 136 1.0 7.0 0.00 0.00 0.00 28 1019.9
20260502161537 74 163 4.0 7.0 0.00 0.00 0.00 28 1019.9
20260502160757 74 161 3.0 9.0 0.00 0.00 0.00 29 1020.1
20260502160258 74 129 3.0 9.0 0.00 0.00 0.00 29 1020.2
20260502152049 75 121 7.0 12.0 0.00 0.00 0.00 28 1020.5
20260502151259 75 124 3.0 8.0 0.00 0.00 0.00 29 1020.7
20260502151038 76 92 2.0 8.0 0.00 0.00 0.00 29 1020.6
20260502150537 76 228 0.0 5.0 0.00 0.00 0.00 29 1020.7
20260502130733 76 208 1.0 5.0 0.00 0.00 0.00 30 1021.6
20260502130234 77 192 1.0 4.0 0.00 0.00 0.00 30 1021.8
20260502130104 75 219 2.0 6.0 0.00 0.00 0.00 30 1021.9
20260502123733 74 144 3.0 6.0 0.00 0.00 0.00 31 1022.3
20260502123234 76 183 4.0 6.0 0.00 0.00 0.00 29 1022.1
20260502122733 75 150 0.0 3.0 0.00 0.00 0.00 30 1022.4
20260502122233 74 179 1.0 6.0 0.00 0.00 0.00 31 1022.4
20260502121731 73 297 0.0 6.0 0.00 0.00 0.00 32 1022.2
20260502121508 74 349 3.0 6.0 0.00 0.00 0.00 32 1022.3
20260502120732 73 186 0.0 6.0 0.00 0.00 0.00 32 1022.3
20260502120234 74 306 6.0 6.0 0.00 0.00 0.00 32 1022.4
20260502115733 74 151 2.0 4.0 0.00 0.00 0.00 32 1022.5
20260502115234 74 315 0.0 5.0 0.00 0.00 0.00 33 1022.5
20260502114731 74 225 0.0 5.0 0.00 0.00 0.00 33 1022.6
20260502114234 74 338 2.0 6.0 0.00 0.00 0.00 32 1022.6
20260502114016 75 121 0.0 6.0 0.00 0.00 0.00 32 1022.9
20260502113510 75 133 3.0 5.0 0.00 0.00 0.00 32 1023.0
20260502113012 73 157 0.0 8.0 0.00 0.00 0.00 33 1023.0
20260502112234 72 156 2.0 8.0 0.00 0.00 0.00 33 1023.3
20260502112038 72 101 2.0 10.0 0.00 0.00 0.00 32 1023.2
20260502111748 73 123 4.0 10.0 0.00 0.00 0.00 32 1023.0
20260502110732 72 53 0.0 9.0 0.00 0.00 0.00 33 1023.0
20260502110234 72 145 4.0 11.0 0.00 0.00 0.00 33 1023.3
20260502110013 73 144 4.0 11.0 0.00 0.00 0.00 32 1023.4
20260502105235 74 139 4.0 6.0 0.00 0.00 0.00 33 1023.4
20260502104733 74 287 6.0 6.0 0.00 0.00 0.00 32 1023.3
20260502104511 73 232 1.0 7.0 0.00 0.00 0.00 34 1023.6
20260502103718 72 133 1.0 7.0 0.00 0.00 0.00 34 1023.9
20260502103220 71 120 4.0 7.0 0.00 0.00 0.00 34 1023.8
20260502102719 71 326 2.0 7.0 0.00 0.00 0.00 34 1024.1
20260502102219 73 122 3.0 5.0 0.00 0.00 0.00 34 1023.9
20260502101719 73 218 1.0 4.0 0.00 0.00 0.00 34 1024.2
20260502101459 72 230 2.0 4.0 0.00 0.00 0.00 33 1024.2
20260502100959 72 310 0.0 4.0 0.00 0.00 0.00 35 1024.3
20260502100219 70 176 1.0 4.0 0.00 0.00 0.00 35 1024.4
20260502091459 70 299 0.0 6.0 0.00 0.00 0.00 36 1024.5
20260502090719 72 167 1.0 4.0 0.00 0.00 0.00 36 1025.0
20260502090221 70 338 0.0 5.0 0.00 0.00 0.00 37 1025.0
20260502071218 64 110 0.0 2.0 0.00 0.00 0.00 50 1025.5
20260502070717 62 158 0.0 2.0 0.00 0.00 0.00 53 1025.5
20260502070457 61 341 0.0 3.0 0.00 0.00 0.00 54 1025.5
20260502065717 60 11 0.0 3.0 0.00 0.00 0.00 57 1025.5
20260502065219 58 342 2.0 3.0 0.00 0.00 0.00 59 1025.5
20260502064717 58 322 2.0 3.0 0.00 0.00 0.00 60 1025.8
20260502064221 57 267 0.0 3.0 0.00 0.00 0.00 60 1025.7
20260502063717 56 333 0.0 4.0 0.00 0.00 0.00 62 1025.7
20260502063457 55 301 2.0 6.0 0.00 0.00 0.00 64 1025.7
20260502062718 54 339 3.0 6.0 0.00 0.00 0.00 65 1025.8
20260502062222 54 339 2.0 4.0 0.00 0.00 0.00 65 1025.8
20260502061717 53 343 2.0 5.0 0.00 0.00 0.00 66 1025.9
20260502061221 53 323 3.0 5.0 0.00 0.00 0.00 67 1026.1
20260502060721 52 359 1.0 4.0 0.00 0.00 0.00 67 1025.8
20260502060220 52 114 0.0 4.0 0.00 0.00 0.00 68 1026.0
20260502055716 52 324 2.0 5.0 0.00 0.00 0.00 68 1025.9
20260502055220 52 79 0.0 5.0 0.00 0.00 0.00 68 1026.0
20260502054705 51 229 0.0 6.0 0.00 0.00 0.00 70 1026.0
20260502054205 51 290 1.0 6.0 0.00 0.00 0.00 70 1026.1
20260502053707 50 102 2.0 9.0 0.00 0.00 0.00 72 1025.9
20260502053205 48 331 2.0 9.0 0.00 0.00 0.00 73 1026.0
20260502052706 48 355 4.0 6.0 0.00 0.00 0.00 74 1026.1
20260502052230 47 310 2.0 6.0 0.00 0.00 0.00 75 1026.0
20260502052219 48 321 4.0 5.0 0.00 0.00 0.00 74 1025.9
20260502051447 47 61 2.0 6.0 0.00 0.00 0.00 77 1026.0
20260502050705 47 340 2.0 4.0 0.00 0.00 0.00 76 1026.0
20260502050205 47 167 3.0 4.0 0.00 0.00 0.00 77 1025.9
20260502045705 47 53 4.0 4.0 0.00 0.00 0.00 77 1026.0
20260502045204 46 41 2.0 5.0 0.00 0.00 0.00 79 1025.7
20260502044705 45 6 3.0 5.0 0.00 0.00 0.00 80 1026.0
20260502044205 45 47 3.0 5.0 0.00 0.00 0.00 81 1025.9
20260502043705 44 294 2.0 5.0 0.00 0.00 0.00 82 1025.8
20260502043445 44 2 3.0 6.0 0.00 0.00 0.00 83 1026.0
20260502042704 44 343 1.0 6.0 0.00 0.00 0.00 85 1025.6
20260502042205 43 290 2.0 5.0 0.00 0.00 0.00 86 1025.7
20260502041705 42 314 1.0 3.0 0.00 0.00 0.00 88 1025.9
20260502041204 42 358 1.0 3.0 0.00 0.00 0.00 90 1025.9
20260502040705 42 33 2.0 3.0 0.00 0.00 0.00 91 1025.9
20260502040205 41 73 0.0 4.0 0.00 0.00 0.00 92 1025.6
20260502035705 41 51 2.0 4.0 0.00 0.00 0.00 92 1025.7
20260502035206 40 55 1.0 5.0 0.00 0.00 0.00 92 1025.7
20260502034737 40 77 2.0 4.0 0.00 0.00 0.00 92 1025.7
20260502034726 40 330 4.0 5.0 0.00 0.00 0.00 92 1025.7
20260502033705 40 219 2.0 4.0 0.00 0.00 0.00 92 1025.6
20260502033231 41 108 0.0 4.0 0.00 0.00 0.00 91 1025.4
20260502033220 41 136 3.0 4.0 0.00 0.00 0.00 92 1025.5
20260502032509 41 181 2.0 4.0 0.00 0.00 0.00 91 1025.8
20260502032220 41 269 0.0 4.0 0.00 0.00 0.00 91 1025.7
20260502031208 41 82 3.0 4.0 0.00 0.00 0.00 90 1025.5
20260502030705 41 337 0.0 5.0 0.00 0.00 0.00 90 1025.6
20260502030205 42 136 3.0 5.0 0.00 0.00 0.00 89 1025.7
20260502025705 41 93 2.0 5.0 0.00 0.00 0.00 89 1025.7
20260502025205 42 19 4.0 5.0 0.00 0.00 0.00 89 1025.9
20260502024945 42 326 2.0 5.0 0.00 0.00 0.00 89 1025.7
20260502024204 42 117 3.0 4.0 0.00 0.00 0.00 89 1025.9
20260502023704 42 84 0.0 4.0 0.00 0.00 0.00 89 1025.7
20260502023206 42 101 3.0 5.0 0.00 0.00 0.00 88 1025.9
20260502022705 43 161 2.0 5.0 0.00 0.00 0.00 87 1025.7
20260502022231 43 156 0.0 5.0 0.00 0.00 0.00 86 1025.7
20260502022220 43 130 3.0 4.0 0.00 0.00 0.00 87 1025.8